SCP
0 0 0 0 0 0 0 0 0 0 0 0 0 0 0 0 0 0 0 0 0 0 0 0 0 0 0 0 0 0 0 0 0 0 0 0 0 0 0 0 0 0 0
0 0 0 0 0 0 0 0 0 0 0 0 0 0 0 0 0 0 0 0 0 0 0 0 0 0 0 0 0 0 0 0 0 0 0 0 0 0 0 0 0 0 0
0 0 0 0 0 0 0 0 0 0 0 0 0 0 0 0 0 0 0 0 0 0 0 0 0 0 0 0 0 0 0 0 0 0 0 0 0 0 0 0 0 0 0
0 0 0 0 0 0 0 0 0 0 0 0 0 0 0 0 0 0 0 0 0 0 0 0 0 0 0 0 0 0 0 0 0 0 0 0 0 0 0 0 0 0 0
0 0 0 0 0 0 0 0 0 0 0 0 0 0 0 0 0 0 0 0 0 0 0 0 0 0 0 0 0 0 0 0 0 0 0 0 0 0 1 1 1 1 1
0 0 0 0 0 0 0 0 0 0 0 0 0 0 0 0 0 0 0 0 0 0 0 0 0 0 0 0 0 0 0 0 0 0 0 0 0 0 1 1 1 1 1
0 0 0 0 0 0 0 0 0 0 0 0 0 0 0 0 0 0 0 0 0 0 0 0 0 0 0 0 0 0 0 0 0 0 0 0 0 0 1 1 1 1 1
0 0 0 0 0 0 0 0 0 0 0 0 0 0 0 0 0 0 0 0 0 0 0 0 0 0 0 0 0 0 0 0 0 0 0 0 0 0 0 1 1 1 1
0 0 0 0 0 0 0 0 0 0 0 0 0 0 0 0 0 0 0 0 0 0 0 0 0 0 0 0 0 0 0 0 0 0 0 0 0 0 0 1 1 1 1
0 0 0 0 0 0 0 0 0 0 0 0 0 0 0 0 0 0 0 0 0 0 0 0 0 0 0 0 0 0 0 0 0 0 0 0 0 0 0 1 1 1 1
0 0 0 0 0 0 0 0 0 0 0 0 0 0 0 0 0 0 0 0 0 0 0 0 0 0 0 0 0 0 0 0 0 0 0 0 0 0 0 1 1 1 1
0 0 0 0 0 0 0 0 0 0 0 0 0 0 0 0 0 0 0 0 0 0 0 0 0 0 0 0 0 0 0 0 0 0 0 0 0 1 1 1 1 1 1
0 0 0 0 0 0 0 0 0 0 0 0 0 0 0 0 0 0 0 0 0 0 0 0 0 0 0 0 0 0 0 0 0 0 0 0 0 1 1 1 1 1 1
0 0 0 0 0 0 0 0 0 0 0 0 0 0 0 0 0 0 0 0 0 0 0 0 0 0 0 0 0 0 0 0 0 0 0 0 1 1 1 1 1 1 1
0 0 0 0 0 0 0 0 0 0 0 0 0 0 0 0 0 0 0 0 0 0 0 0 0 0 0 0 0 0 0 0 0 0 0 0 0 1 1 1 1 1 1
0 0 0 0 0 0 0 0 0 0 0 0 0 0 0 0 0 0 0 0 0 0 0 0 0 0 0 0 0 0 0 0 0 0 0 0 0 0 0 0 1 1 0
0 0 0 0 0 0 0 0 0 0 0 0 0 0 0 0 0 0 0 0 0 0 0 0 0 0 0 0 0 0 0 0 0 0 0 0 0 0 0 0 0 0 0
0 0 0 0 0 0 0 0 0 0 0 0 0 0 0 0 0 0 0 0 0 0 0 0 0 0 0 0 0 0 0 0 0 0 0 0 0 0 0 0 0 0 0
0 0 0 0 0 0 0 0 0 0 0 0 0 0 0 0 0 0 0 0 0 0 0 0 0 0 0 0 0 0 0 0 0 0 0 0 0 0 0 0 0 0 0
0 0 0 0 0 0 0 0 0 0 0 0 0 0 0 0 0 0 0 0 0 0 0 0 0 0 0 0 0 0 0 0 0 0 0 0 0 0 0 0 0 0 0
0 0 0 0 0 0 0 0 0 0 0 0 0 0 0 0 0 0 0 0 0 0 0 0 0 0 0 0 0 0 0 0 0 0 0 0 0 0 0 0 0 0 0
0 0 0 0 0 0 0 0 0 0 0 0 0 0 0 0 0 0 0 0 0 0 0 0 0 0 0 0 0 0 0 0 0 0 0 0 0 0 0 0 0 0 0
0 0 0 0 0 0 0 0 0 0 0 0 0 0 0 0 0 0 0 0 0 0 0 0 0 0 0 0 0 0 0 0 0 0 0 0 0 0 0 0 0 0 0
0 0 0 0 0 0 0 0 0 0 0 0 0 0 0 0 0 0 0 0 0 0 0 0 0 0 0 0 0 0 0 0 0 0 0 0 0 0 0 0 0 0 0
0 0 0 0 0 0 0 0 0 0 0 0 0 0 0 0 0 0 0 0 0 0 0 0 0 0 0 0 0 0 0 0 0 0 0 0 0 0 0 0 0 0 0
0 0 0 0 0 0 0 0 0 0 0 0 0 0 0 0 0 0 0 0 0 0 0 0 0 0 0 0 0 0 0 0 0 0 0 0 0 0 0 0 0 0 0
Wind_Speed
5 5 5 5 5 4 5 6 6 6 6 6 7 7 7 7 6 5 6 6 6 6 6 6 6 5 4 4 4 4 4 4 6 5 3 3 4 3 1 1 2 3 4
5 4 5 5 5 5 6 6 6 6 7 7 7 7 8 8 7 7 8 7 7 8 8 7 8 6 6 5 4 5 5 5 5 6 4 3 4 3 1 1 2 2 2
4 5 5 5 5 6 7 7 6 7 7 7 7 8 8 8 8 8 8 9 8 9 8 8 8 8 7 6 6 6 5 5 5 5 5 3 3 2 0 2 3 3 3
4 5 5 6 6 6 7 7 7 7 7 8 8 8 9 9 9 9 9 9 9 9 9 9 9 9 9 8 7 7 6 6 6 5 5 3 3 3 2 2 3 2 3
4 5 6 6 6 6 7 7 7 7 8 8 8 9 9 8 9 9 9 10 9 10 9 9 10 12 13 10 7 7 7 6 5 5 5 3 3 3 3 2 3 4 3
5 6 6 6 6 6 7 7 7 8 8 8 9 9 10 8 11 14 12 10 10 11 11 10 10 12 14 15 16 14 12 9 8 6 5 5 5 4 3 3 4 5 4
5 6 6 6 6 7 7 7 8 8 8 9 9 9 10 11 14 16 16 11 11 11 11 10 9 10 11 10 12 15 15 16 14 9 8 8 6 5 5 6 6 5 4
6 6 6 6 7 7 7 8 8 7 8 8 9 10 10 11 14 14 15 11 10 11 11 11 11 11 10 10 10 10 10 11 12 11 9 9 8 6 5 5 5 5 4
6 7 7 6 7 8 8 9 8 7 8 8 9 10 10 12 13 13 12 7 8 10 10 11 11 12 13 14 12 11 11 10 11 13 12 11 11 10 6 4 6 7 5
7 7 6 6 7 8 9 9 8 7 9 9 10 9 10 11 12 13 11 6 7 8 8 9 13 14 13 13 12 11 12 10 9 9 9 10 10 10 10 8 7 7 5
6 6 6 7 7 8 8 8 8 8 9 9 10 10 9 10 11 13 11 6 6 7 7 7 7 11 14 14 13 11 12 10 9 9 7 7 7 6 7 7 6 6 6
5 6 7 7 7 7 7 8 8 8 8 9 8 9 7 7 8 9 11 10 8 7 8 7 7 10 12 13 11 12 14 12 7 7 7 7 7 7 7 7 7 6 4
5 6 7 7 7 7 8 8 8 7 6 7 7 8 8 6 6 10 11 10 9 7 7 10 10 11 10 9 11 13 11 8 7 8 8 8 7 7 7 6 6 5 5
6 7 6 7 8 7 6 6 7 7 7 7 7 7 7 7 6 5 4 5 6 6 5 7 8 9 7 6 6 7 7 7 7 8 7 6 6 6 7 6 6 6 5
6 6 6 6 7 8 7 6 7 8 8 8 8 7 8 8 7 6 5 5 4 4 4 4 3 3 3 4 4 5 6 6 7 7 6 6 6 7 7 7 6 6 6
6 6 5 5 6 6 7 8 9 11 13 14 15 12 9 12 13 12 10 10 9 7 4 4 4 4 4 5 5 5 6 6 7 7 7 7 7 7 7 7 7 7 7
7 6 5 5 6 6 6 7 9 10 10 11 11 11 11 12 12 11 10 9 8 6 5 6 5 5 5 5 5 5 6 6 6 6 6 6 6 7 7 7 8 7 7
6 7 7 6 6 6 7 7 7 8 9 9 9 10 10 10 10 9 7 4 4 5 5 6 6 5 5 5 5 5 5 5 5 6 6 6 6 6 7 7 8 9 7
6 5 5 6 6 6 6 7 7 8 8 8 8 8 7 7 6 5 4 4 5 5 5 6 6 6 5 5 5 5 5 5 6 6 6 6 6 6 7 7 7 10 8
5 9 8 6 6 6 6 6 6 7 7 7 7 7 5 4 4 4 4 5 6 6 6 6 6 6 5 5 5 4 5 5 6 6 6 6 6 7 8 8 8 9 8
4 5 8 6 5 5 6 6 6 6 7 7 7 7 8 6 6 6 5 5 6 6 6 6 6 6 5 5 5 5 6 5 5 6 6 7 7 7 7 7 8 8 8
4 4 4 5 5 5 6 6 6 6 7 8 7 7 8 5 5 6 5 6 6 5 5 5 5 5 5 6 6 6 6 6 6 6 6 7 7 7 7 7 8 8 9
4 4 5 5 5 6 6 6 5 6 6 7 7 7 6 5 5 5 6 6 5 5 4 5 5 5 5 6 6 7 7 7 7 8 8 7 7 7 7 8 10 10 10
4 4 5 5 5 5 5 6 6 6 6 6 6 6 6 6 6 6 6 5 5 4 4 4 5 6 7 6 5 6 7 7 7 7 10 9 8 8 8 8 9 11 11
4 4 4 4 4 5 5 5 5 6 6 6 6 6 6 6 6 6 6 5 5 5 5 4 3 4 5 6 6 6 7 8 7 7 8 8 9 10 10 10 9 10 10
4 3 3 3 3 4 4 5 5 6 6 6 5 6 6 6 6 7 6 5 5 4 4 3 3 3 3 3 4 4 5 6 7 8 7 8 9 9 10 9 12 11 12
Wind_Direction
259 259 266 267 268 269 267 268 271 275 276 276 278 279 278 275 269 257 255 257 254 258 260 257 260 258 255 251 242 238 238 238 261 279 280 303 302 293 273 204 184 192 202
260 264 266 271 276 275 272 273 275 275 276 276 278 278 277 276 270 264 266 265 253 254 256 254 259 260 252 250 242 238 237 233 245 271 284 293 296 297 249 136 110 108 126
265 267 274 277 275 272 273 277 278 277 279 280 277 276 277 277 275 269 265 265 259 254 252 249 252 252 253 250 244 242 241 241 235 252 270 276 285 278 185 112 104 94 92
265 265 270 272 270 270 274 277 277 277 278 279 277 275 275 276 275 273 269 267 265 260 253 248 247 243 244 246 244 242 241 242 239 243 255 263 267 266 208 163 137 123 111
264 268 268 271 272 272 274 276 278 277 278 276 279 279 276 273 269 266 265 267 266 266 260 251 246 243 242 239 235 233 232 234 234 234 241 247 248 237 215 175 159 143 116
260 266 272 277 276 275 275 279 281 280 279 278 276 276 276 272 269 269 270 270 268 268 268 263 255 255 254 251 247 239 225 224 227 228 228 229 237 237 225 191 162 162 156
261 268 274 274 275 276 280 283 282 281 279 280 278 274 273 271 269 271 272 270 265 265 264 263 262 257 248 242 246 248 242 232 224 222 227 224 225 225 219 204 189 171 154
265 270 273 273 276 279 281 281 281 278 278 279 279 277 275 274 271 270 273 272 266 263 260 257 255 256 251 241 242 244 243 240 232 229 229 227 225 218 219 224 189 143 112
264 267 270 271 276 282 283 282 282 281 282 280 278 277 276 278 275 272 271 268 264 264 261 257 252 253 247 237 239 244 245 245 240 232 226 226 222 215 205 200 179 167 155
259 262 268 269 272 277 279 281 280 278 280 284 282 276 272 275 276 274 273 261 263 265 265 259 253 250 246 235 236 238 241 240 237 229 222 223 221 218 208 208 196 184 162
256 262 269 270 271 274 276 275 280 283 285 284 283 281 276 271 274 273 270 252 251 262 266 264 256 245 244 239 232 232 234 231 230 223 218 215 211 211 211 209 205 195 181
254 260 269 274 276 281 277 281 281 281 285 287 287 289 282 271 264 269 268 259 250 253 261 264 261 254 249 245 235 229 225 220 223 218 211 209 207 207 208 205 204 203 193
250 260 270 280 281 278 277 282 287 283 279 285 286 287 289 285 272 264 268 269 267 259 258 260 264 264 259 250 237 223 214 213 211 213 212 208 206 205 197 196 195 182 157
251 265 274 283 289 288 279 273 276 280 281 283 284 284 287 288 282 273 264 266 274 275 272 271 270 265 251 243 234 218 212 209 208 213 213 206 196 195 195 189 188 175 158
250 264 275 279 283 290 287 276 273 267 258 265 277 276 279 283 278 265 260 265 266 272 285 274 264 260 248 236 228 217 209 206 211 214 210 200 194 194 194 188 184 176 172
250 264 270 279 284 286 294 300 278 263 269 262 255 254 262 258 270 277 269 264 264 269 264 260 264 255 247 239 226 216 208 209 209 206 202 197 192 194 191 186 183 182 176
239 258 270 276 282 289 294 300 308 309 297 285 274 269 262 269 273 273 268 264 261 249 242 252 256 253 244 238 227 219 215 207 202 198 198 194 189 190 191 188 185 183 179
238 257 266 270 277 283 288 290 291 297 306 307 302 294 290 286 283 277 264 250 251 226 235 248 252 251 243 235 227 221 217 203 198 200 197 192 188 188 190 189 186 183 177
236 249 260 269 274 279 285 288 289 290 290 293 299 302 300 297 288 273 232 228 248 251 243 244 247 247 243 236 228 218 213 207 201 198 198 195 191 191 191 189 184 178 173
237 254 267 273 280 286 289 290 294 297 298 296 296 298 304 300 289 275 235 237 246 252 251 247 245 241 237 233 226 213 207 204 200 199 196 195 196 196 193 187 183 179 177
233 257 274 280 277 282 287 290 293 296 296 296 295 293 291 285 283 280 271 255 251 254 252 248 243 239 232 226 222 216 212 210 204 197 195 195 196 195 192 188 184 180 173
221 244 260 271 277 282 288 289 290 292 295 299 302 304 301 286 283 282 276 270 262 253 252 248 243 237 229 223 217 213 212 212 207 200 197 193 193 191 187 185 183 179 173
211 241 260 269 275 285 290 290 294 297 299 301 303 306 310 305 300 298 296 290 281 268 258 252 251 247 235 225 219 212 211 212 204 194 190 188 187 188 186 183 181 178 175
205 233 254 270 279 284 290 295 299 302 303 304 305 308 309 307 305 306 305 299 290 279 268 262 261 257 246 230 219 215 213 210 201 195 191 185 185 186 184 183 181 180 177
200 223 245 263 278 285 291 298 304 309 310 307 309 312 315 316 315 314 312 308 302 296 293 288 280 272 255 239 227 221 211 203 200 192 188 187 188 188 184 183 179 176 174
194 214 237 260 276 285 292 301 308 313 313 315 318 320 322 324 324 323 322 323 321 317 315 311 308 299 277 256 239 223 200 194 194 193 188 186 187 188 183 182 180 177 175